Location: Newark
(49.7314°N, 3.6506°E)
Time: 13:57:43
(UTC+00:00)

N. Korean satellite - Visible Passes

Search period start: 23 September 2020 00:00
Search period end: 03 October 2020 00:00
Orbit: 455 x 503 km, 97.2° (Epoch: 22 September)

Date Brightness Start Highest point End Pass type
(mag) Time Alt. Az. Time Alt. Az. Time Alt. Az.
23 Sep 9.4 04:38:38 10° NE 04:41:36 23° E 04:44:32 10° SSE visible
24 Sep 10.1 04:13:45 10° ENE 04:15:20 12° E 04:16:55 10° ESE visible
26 Sep 8.7 04:53:39 10° NNE 04:56:59 33° E 05:00:16 10° SSE visible
27 Sep 9.8 04:28:15 10° NE 04:30:48 18° E 04:33:17 10° SE visible
29 Sep 7.7 05:08:47 10° NNE 05:12:20 49° E 05:15:48 10° S visible
30 Sep 9.2 04:43:07 10° NE 04:46:10 25° E 04:49:11 10° SSE visible
01 Oct 10.0 04:18:02 10° ENE 04:19:55 14° E 04:21:46 10° ESE visible
